STARLINK-32748, 62524

Orbit data source: Space-Track

STARLINK-32748, 62524 is a payload satellite owned by SpaceX/Seattle (US) in LEO that was launched on Wed, 08 Jan 2025 UTC via an FALCON 9 launch vehicle from the Air Force Eastern Test Range (AFETR). Payload-class satellites include a variety of spacecraft equipped with specific instruments for various scientific and technological missions. These include communications satellites like Starlink; space stations such as the ISS; scientific satellites like the Hubble; Earth observation satellites from companies like Planet Labs, Umbra, and HawkEye 360; GPS; miniature CubeSats for education and research; and military/defense satellites.

Loading next visibility...
Identifier
62524, 2025-004P
Orbit
LEO
Last TLE update
15 hours ago
Origin
Manufacturer
SpaceX/Seattle
Mission
Operational Commercial Communications
Bus & Motor
STARLINK V2M, Unknown motor
Mass
730 kg wet, ~700 kg dry
Launch date (UTC)
2025-01-08 (6 months ago)
Launch vehicle
FALCON 9
Launch site
Air Force Eastern Test Range (AFETR)
Object type
Payload
Rocket body
Debris
Shape & HBR
Box + 2 Pan, 29 m
Radar Cross Section
33.884 m², Large (>1 m²)

Expand to show TLE details & history

TLE from 15 hours ago
0 STARLINK-32748
1 62524U 25004P   25181.77514102  .00014128  00000-0  52177-3 0  9995
2 62524  43.0029 202.3731 0001352 279.5727  80.4972 15.27590115 27934
Epoch: 2025-06-30T18:36Z
TLE epoch observation values (Epoch: 2025-06-30T18:36:12.184Z)
Latitude
0.00001°
Longitude
4.24223°
Altitude
482.642 km
Speed
7.626 km/s
True Right ascension
13h 29m 29s
True Declination
0° 00' 00"
Sunlit
Object was in daylight at epoch
Visualization orbit readout
Latitude
-36.23561°
Longitude
-50.78547°
Altitude
492.577 km
Speed
7.619 km/s
Apparent Right ascension
09h 45m 13s
Apparent Declination
-37° 49' 59"
Sunlit
Object is in daylight
Visualization observer readout
Local Sidereal Time
21:40:30
Azimuth
335.872° NNW
Elevation
-87.724°
Doppler factor
1
Orbital elements
Apogee altitude
485.891 km
Perigee altitude
484.036 km
Semi-major axis
6,863.101 km
Eccentricity
0.00014
Inclination
43.0029°
RAAN
202.3731°
Arg. of periapsis
279.5727°
True anomaly
Unknown
Mean anomaly
80.4972°
Eccentric anomaly
Unknown
Mean motion
3.81736 °/min
Orbital period
94.31 mins
BSTAR
0.00052177
Loading maneuver chart data...
Loading SW <> Apogee altitude chart data...
Loading historical data...
Loading historical data...
Loading historical data...
Loading historical data...
Loading historical data...
Loading historical data...
Loading historical data...

STARLINK-32748 Visibility forecast

Observer location: undefined°, undefined°

Span
Click to sort rows by Start time (UTC) header in descending order
Start Az.
Max El. time (UTC)
Max El. Az.
Max El.
End time (UTC)
End Az.
5 mins2025-07-01 10:48:07.696Z263.552° W2025-07-01 10:50:07.696Z223.787° SW24.005°2025-07-01 10:53:07.696Z159.111° S
6 mins2025-07-02 05:23:07.696Z249.156° W2025-07-02 05:26:07.696Z78.506° E43.104°2025-07-02 05:29:07.696Z72.268° E
5 mins2025-07-02 07:03:07.696Z294.806° NW2025-07-02 07:05:07.696Z16.898° NNE37.452°2025-07-02 07:08:07.696Z74.554° E
5 mins2025-07-02 08:42:07.696Z292.184° WNW2025-07-02 08:44:07.696Z46.178° ENE44.368°2025-07-02 08:47:07.696Z103.184° ESE
|